Weather in Llanes

Spain     43°25′11″N   4°45′17″W
temp.,
°C
wind,
m/s
gust,
m/s
humid.,
%
clouds,
%
prec.,
mm/h
press.,
hPa
HPBL,
m
17 may, mon
mon1723:00+14w81277100 0.0 1019951
02:00+13wnw71079100 0.0 1019818
05:00+13w71073100 0.0 1019743
08:00+13w6973100 0.0 1021626
11:00+13wnw68699 0.0 1021620
14:00+14nw77704 0.0 1022635
17:00+14nnw23677 0.0 1021489
20:00+14nw336891 0.0 1021592
18 may, tue
tue1823:00+13w1168100 0.0 1022496
02:00+13nne1271100 0.1 1021395
05:00+12ene4485100 1.1 1019415
08:00+11ne5593100 7.1 1021429
11:00+12e5591100 2.4 1021415
14:00+13ene228470 3.9 1022336
17:00+13e228324 0.2 1023392
20:00+13ne118254 0.3 1024351
19 may, wed
wed1923:00+13w348477 0.0 1026442
02:00+13w698114 0.1 1025562
05:00+12w9117976 0.2 1026781
08:00+12w8107750 0.3 1027817
11:00+13wnw91069100 0.1 1028861
14:00+14nw997493 0.1 1029749
17:00+14nw667275 0.0 1030662
20:00+14nw347253 0.0 1031654
20 may, thu
thu2023:00+13w1171100 0.0 1032515
02:00+13sse11738 0.0 1031354
05:00+12sse227594 0.0 1030219
08:00+12ese346960 0.0 1029237
11:00+13e6670100 0.0 1029420
14:00+14e877099 0.0 1027407
17:00+14e8876100 0.0 1026435
20:00+14e6773100 0.0 1025332
21 may, fri
fri2123:00+14e55786 0.0 1023190
02:00+15ese12785 0.0 102048
05:00+14wnw678125 0.0 1020226
08:00+15w711755 0.0 1020290
11:00+16wnw5768100 0.0 1021260
14:00+15nw7108328 0.0 1021568
17:00+15wnw7107685 0.0 1021629
20:00+14wnw6980100 0.0 1021622